Regional Weather Roundup
Issued by NWS

Home | Current Version | Previous Version | Text Only | Print | Product List | Glossary Off
Versions: 1 2 3 4 5 6 7 8 9 10 11 12 13 14 15 16 17 18 19 20 21 22 23 24 25 26 27 28 29 30 31 32 33 34 35 36 37 38 39 40 41 42 43 44 45 46 47 48 49 50

000
ASUS43 KIND 221759
RWRIN

WEATHER ROUNDUP FOR INDIANA
NATIONAL WEATHER SERVICE INDIANAPOLIS IN
200 PM EDT SAT APR 22 2017

NOTE: "FAIR" INDICATES FEW OR NO CLOUDS BELOW 12,000 FEET WITH NO
SIGNIFICANT WEATHER AND/OR OBSTRUCTIONS TO VISIBILITY.

* - STATION DOES NOT REPORT WEATHER SUCH AS PRECIPITATION OR FOG.

+ - STATION NOT QUALITY CONTROLLED BY THE NATIONAL WEATHER SERVICE.
    USE DATA WITH CAUTION...ESPECIALLY DEWPOINT AND RELATIVE
    HUMIDITY OBSERVATIONS.

INZ001>003-010>013-019-020-221900-
NORTHWEST INDIANA

CITY           SKY/WX    TMP DP  RH WIND       PRES   REMARKS
GARY /AIRPORT/ PTSUNNY   50  34  53 N14       30.21F
MONTICELLO +   MOSUNNY   56  33  41 NE13G18   30.14S
6HR MIN TEMP:  41; 6HR MAX TEMP:  56;


$$

LMZ046-743>745-221900-
SOUTHERN LAKE MICHIGAN

STATION/POSITION TIME  TEMP    WIND        PRES    WAVE
                       AIR SEA DIR/SP/G            HT
                 (UTC) (F)     (DEG/KT/KT) (MB)    (FT)
BURNS HARBOR     1740   43     360/ 13/ 15 1023.0F
MICHIGAN CITY    1730   44     350/ 12/ 13   N/A

$$

INZ004-005-014>016-021>024-221900-
NORTH CENTRAL INDIANA

CITY           SKY/WX    TMP DP  RH WIND       PRES   REMARKS
ELKHART        SUNNY     57  28  33 NE14      30.16S
GOSHEN         SUNNY     58  34  40 NE12      30.15S
6HR MIN TEMP:  40; 6HR MAX TEMP:  58;

SOUTH BEND     MOSUNNY   57  34  41 NE9       30.17F
6HR MIN TEMP:  39; 6HR MAX TEMP:  57;


$$

INZ006>009-017-018-025>027-221900-
NORTHEAST INDIANA

CITY           SKY/WX    TMP DP  RH WIND       PRES   REMARKS
ANGOLA *+      SUNNY     55  45  67 NE15G22   30.14S
FORT WAYNE     CLOUDY    52  35  52 NE20      30.15S
6HR MIN TEMP:  42; 6HR MAX TEMP:  53;

KENDALLVILLE + CLOUDY    57  34  41 E10G18    30.14S

$$

INZ028-029-035-036-043>045-051>053-221900-
WEST CENTRAL INDIANA

CITY           SKY/WX    TMP DP  RH WIND       PRES   REMARKS
CRAWFORDSVL +  CLOUDY    49  37  61 NE16G23   30.12S
6HR MIN TEMP:  41; 6HR MAX TEMP:  49;

GREENCASTLE +  CLOUDY    48  36  61 NE12      30.10S
LAFAYETTE      MOSUNNY   56  38  50 NE18      30.12F
6HR MIN TEMP:  42; 6HR MAX TEMP:  56;

TERRE HAUTE    LGT RAIN  52  37  56 E18G28    30.09S
6HR MIN TEMP:  45; 6HR MAX TEMP:  52; 6HR PCP: TRACE;


$$

INZ030>032-037>040-046>048-054>057-064-065-221900-
CENTRAL INDIANA

CITY           SKY/WX    TMP DP  RH WIND       PRES   REMARKS
ANDERSON       SUNNY     50  36  57 NE12G23   30.12
COLUMBUS       CLOUDY    50  37  62 NE16      30.07F
INDIANAPOLIS   PTSUNNY   51  36  56 NE16G26   30.09F
6HR MIN TEMP:  45; 6HR MAX TEMP:  51;

-EAGLE CREEK   CLOUDY    51  35  54 NE14G22   30.10F
6HR MIN TEMP:  45; 6HR MAX TEMP:  51;

KOKOMO +       CLOUDY    53  36  52 E18G26    30.13F
6HR MIN TEMP:  42; 6HR MAX TEMP:  53;

SHELBYVILLE    MOSUNNY   53  38  56 NE20      30.08S
6HR MIN TEMP:  46; 6HR MAX TEMP:  53;


$$

INZ033-034-041-042-049-050-058-059-221900-
EAST CENTRAL INDIANA

CITY           SKY/WX    TMP DP  RH WIND       PRES   REMARKS
MUNCIE         CLOUDY    53  35  50 NE17      30.10F
6HR MIN TEMP:  44; 6HR MAX TEMP:  53;

RICHMOND +     PTSUNNY   46  36  66 NE15      30.09F

$$

INZ060-061-067>069-081>083-085>088-221900-
SOUTHWEST INDIANA

CITY           SKY/WX    TMP DP  RH WIND       PRES   REMARKS
EVANSVILLE     CLOUDY    53  46  77 NE16G23   30.03S
6HR MIN TEMP:  47; 6HR MAX TEMP:  53; 6HR PCP:  0.14;

HUNTINGBURG *+ LGT RAIN  50  46  86 NE13      30.05R
6HR MIN TEMP:  46; 6HR MAX TEMP:  50; 6HR PCP:  0.12;


$$

INZ062-063-066-070>080-084-089>092-221900-
SOUTH CENTRAL AND SOUTHEAST INDIANA

CITY           SKY/WX    TMP DP  RH WIND       PRES   REMARKS
BLOOMINGTON    CLOUDY    53  39  59 NE15      30.06S
6HR MIN TEMP:  46; 6HR MAX TEMP:  54;

MADISON *+     CLOUDY    50  37  62 NE14G24   30.07S
SEYMOUR +      CLOUDY    54  39  58 NE15G21   30.06S

$$





USA.gov is the U.S. government's official web portal to all federal, state and local government web resources and services.